Date String (YYYY-MM-DD hh:mm:ss) UTC,Instrument flags,Ambient pressure (hPa),Sample flow (lpm),Bypass flow (lpm),Sample temperature (°C),Ambient temperature (°C),ASC tube jacket temperature (°C),LED temperature (°C),Box temperature (°C),Sample RH (%),Span deviation,Mass concentration (μg/m³),Mass concentration (μg/m³),Mass concentration (μg/m³)
DateTimeUTC,F1_M11,P_M11,Q1_M11,Q2_M11,T1_M11,T2_M11,T3_M11,T4_M11,T5_M11,U1_M11,ZSPAN_M11,X0_M11,X2_M11,X1_M11
2021-09-13 01:00:00,,0829.6,5.00,0.00,29.2,26.8,00.0,38.4,30.9,30.9,0002.5,0010.71,0005.61,0004.61
2021-09-13 01:01:00,,0829.6,5.01,0.00,29.3,27.2,00.0,38.4,31.0,30.8,0002.8,0010.31,0005.61,0004.61
2021-09-13 01:02:00,,0829.5,4.99,0.00,29.3,27.5,00.0,38.4,31.1,30.8,0002.4,0010.26,0005.59,0004.61
2021-09-13 01:03:00,,0829.5,5.01,0.00,29.3,27.8,00.0,38.4,31.1,30.6,0002.2,0009.77,0005.56,0004.61
2021-09-13 01:04:00,,0829.6,5.00,0.00,29.4,28.0,00.0,38.4,31.2,30.6,0001.7,0009.62,0005.58,0004.63
2021-09-13 01:05:00,,0829.5,4.99,0.00,29.4,28.1,00.0,38.4,31.3,30.4,0001.4,0009.87,0005.64,0004.65
2021-09-13 01:06:00,,0829.5,5.01,0.00,29.4,28.2,00.0,38.4,31.3,30.4,0001.2,0010.08,0005.65,0004.64
2021-09-13 01:07:00,,0829.5,4.99,0.00,29.5,28.4,00.0,38.4,31.3,30.3,0000.0,0010.18,0005.63,0004.65
2021-09-13 01:08:00,,0829.5,4.99,0.00,29.5,28.5,00.0,38.4,31.4,30.2,0000.5,0010.24,0005.63,0004.65
2021-09-13 01:09:00,,0829.5,5.00,0.00,29.5,28.5,00.0,38.5,31.4,30.1,0001.2,0010.50,0005.59,0004.66
2021-09-13 01:10:00,,0829.5,5.01,0.00,29.6,28.1,00.0,38.5,31.3,30.0,0001.4,0010.65,0005.53,0004.66
2021-09-13 01:11:00,,0829.6,5.00,0.00,29.5,26.5,00.0,38.5,30.9,30.2,0000.9,0010.56,0005.50,0004.68
2021-09-13 01:12:00,,0829.6,5.00,0.00,29.3,26.1,00.0,38.5,30.8,30.2,0000.8,0010.61,0005.55,0004.70
2021-09-13 01:13:00,,0829.6,5.01,0.00,29.3,26.5,00.0,38.4,30.9,30.2,0000.7,0010.72,0005.61,0004.72
2021-09-13 01:14:00,,0829.6,4.99,0.00,29.3,26.9,00.0,38.4,30.9,30.1,0000.7,0010.99,0005.65,0004.75
2021-09-13 01:15:00,,0829.6,5.00,0.00,29.3,27.2,00.0,38.4,31.0,30.1,0000.7,0011.13,0005.65,0004.76
2021-09-13 01:16:00,,0829.6,5.00,0.00,29.3,27.5,00.0,38.4,31.1,30.2,0001.2,0010.97,0005.64,0004.78
2021-09-13 01:17:00,,0829.6,5.00,0.00,29.3,27.8,00.0,38.4,31.1,30.2,0001.2,0011.16,0005.70,0004.79
2021-09-13 01:18:00,,0829.6,5.01,0.00,29.4,28.0,00.0,38.4,31.2,29.9,0001.1,0011.79,0005.75,0004.80
2021-09-13 01:19:00,,0829.6,5.01,0.00,29.4,28.1,00.0,38.4,31.2,29.8,0000.4,0012.77,0005.77,0004.81
2021-09-13 01:20:00,,0829.5,5.00,0.00,29.4,28.2,00.0,38.4,31.3,29.8,0000.6,0012.49,0005.79,0004.82
2021-09-13 01:21:00,,0829.5,5.00,0.00,29.5,28.4,00.0,38.4,31.3,29.9,0000.1,0012.59,0005.80,0004.83
2021-09-13 01:22:00,,0829.5,4.99,0.00,29.5,28.5,00.0,38.4,31.4,29.8,0000.1,0012.97,0005.83,0004.83
2021-09-13 01:23:00,,0829.5,5.00,0.00,29.6,28.6,00.0,38.5,31.4,29.6,0000.0,0013.06,0005.79,0004.83
2021-09-13 01:24:00,,0829.5,5.00,0.00,29.6,28.7,00.0,38.5,31.5,29.4,0000.0,0013.24,0005.80,0004.83
2021-09-13 01:25:00,,0829.5,4.99,0.00,29.6,28.1,00.0,38.5,31.3,29.4,0000.2,0013.20,0005.81,0004.83
2021-09-13 01:26:00,,0829.5,5.01,0.00,29.5,26.5,00.0,38.5,30.9,29.4,0000.1,0013.25,0005.80,0004.83
2021-09-13 01:27:00,,0829.5,5.00,0.00,29.4,26.2,00.0,38.5,30.8,29.5,-000.1,0013.25,0005.76,0004.81
2021-09-13 01:28:00,,0829.6,5.01,0.00,29.3,26.6,00.0,38.5,30.9,29.7,-000.3,0013.34,0005.72,0004.80
2021-09-13 01:29:00,,0829.6,5.01,0.00,29.3,27.0,00.0,38.5,31.0,29.8,-000.4,0012.63,0005.67,0004.81
2021-09-13 01:30:00,,0829.5,5.00,0.00,29.3,27.4,00.0,38.4,31.0,29.8,-000.5,0011.63,0005.66,0004.81
2021-09-13 01:31:00,,0829.5,4.98,0.00,29.3,27.6,00.0,38.4,31.1,28.9,-000.3,0011.45,0005.63,0004.80
2021-09-13 01:32:00,,0829.5,5.00,0.00,29.4,27.9,00.0,38.4,31.2,28.8,-000.5,0011.07,0005.63,0004.79
2021-09-13 01:33:00,,0829.6,4.99,0.00,29.4,28.0,00.0,38.4,31.2,28.6,-000.6,0011.03,0005.60,0004.79
2021-09-13 01:34:00,,0829.5,5.00,0.00,29.4,28.2,00.0,38.4,31.3,28.5,-000.8,0010.99,0005.65,0004.78
2021-09-13 01:35:00,,0829.5,5.00,0.00,29.5,28.3,00.0,38.5,31.3,28.6,-000.4,0010.83,0005.64,0004.78
2021-09-13 01:36:00,,0829.5,5.00,0.00,29.5,28.4,00.0,38.5,31.4,29.3,-000.1,0010.60,0005.62,0004.79
2021-09-13 01:37:00,,0829.5,4.99,0.00,29.5,28.5,00.0,38.5,31.4,29.4,0000.1,0010.45,0005.65,0004.79
2021-09-13 01:38:00,,0829.5,5.01,0.00,29.6,28.6,00.0,38.5,31.5,29.3,-000.0,0010.51,0005.69,0004.81
2021-09-13 01:39:00,,0829.6,5.00,0.00,29.6,28.7,00.0,38.5,31.5,29.4,0000.2,0010.04,0005.68,0004.83
2021-09-13 01:40:00,,0829.6,5.01,0.00,29.6,28.0,00.0,38.5,31.3,29.3,-000.1,0009.84,0005.65,0004.82
2021-09-13 01:41:00,,0829.6,5.01,0.00,29.5,26.5,00.0,38.5,31.0,29.7,-000.2,0009.90,0005.67,0004.81
2021-09-13 01:42:00,,0829.6,5.00,0.00,29.4,26.2,00.0,38.5,30.9,29.8,-000.4,0010.62,0005.74,0004.82
2021-09-13 01:43:00,,0829.6,5.00,0.00,29.3,26.5,00.0,38.5,30.9,29.5,-000.4,0011.00,0005.80,0004.83
2021-09-13 01:44:00,,0829.6,5.00,0.00,29.3,26.9,00.0,38.5,31.0,29.1,-000.2,0010.92,0005.81,0004.83
2021-09-13 01:45:00,,0829.6,4.99,0.00,29.3,27.3,00.0,38.4,31.1,29.1,0000.1,0011.02,0005.78,0004.82
2021-09-13 01:46:00,,0829.5,5.00,0.00,29.3,27.6,00.0,38.4,31.1,29.6,-000.3,0011.11,0005.80,0004.83
2021-09-13 01:47:00,,0829.6,5.00,0.00,29.4,27.8,00.0,38.4,31.2,30.0,-000.4,0011.35,0005.84,0004.83
2021-09-13 01:48:00,,0829.8,4.99,0.00,29.4,28.0,00.0,38.4,31.2,30.1,-000.2,0011.36,0005.84,0004.83
2021-09-13 01:49:00,,0829.6,5.01,0.00,29.4,28.1,00.0,38.4,31.3,30.4,0000.8,0011.35,0005.85,0004.82
2021-09-13 01:50:00,,0829.5,4.99,0.00,29.4,28.3,00.0,38.5,31.3,30.2,0000.2,0011.58,0005.91,0004.83
2021-09-13 01:51:00,,0829.6,4.99,0.00,29.5,28.4,00.0,38.5,31.3,30.2,0000.3,0011.73,0005.96,0004.83
2021-09-13 01:52:00,,0829.7,5.01,0.00,29.5,28.5,00.0,38.5,31.3,29.8,0000.2,0011.71,0005.95,0004.84
2021-09-13 01:53:00,,0829.5,5.00,0.00,29.5,28.5,00.0,38.5,31.4,29.6,-000.2,0011.26,0005.91,0004.83
2021-09-13 01:54:00,,0829.5,5.00,0.00,29.6,28.6,00.0,38.5,31.4,29.3,0000.3,0010.77,0005.87,0004.84
2021-09-13 01:55:00,,0829.6,5.01,0.00,29.6,28.7,00.0,38.5,31.5,29.3,0000.3,0010.51,0005.87,0004.85
2021-09-13 01:56:00,,0829.6,4.99,0.00,29.6,28.6,00.0,38.6,31.4,29.3,0000.1,0010.47,0005.89,0004.87
2021-09-13 01:57:00,,0829.6,5.00,0.00,29.6,27.1,00.0,38.6,31.1,29.4,0000.4,0010.74,0005.92,0004.88
2021-09-13 01:58:00,,0829.5,5.00,0.00,29.4,26.1,00.0,38.5,30.8,29.6,-000.0,0010.66,0005.92,0004.87
2021-09-13 01:59:00,,0829.5,5.00,0.00,29.3,26.2,00.0,38.5,30.8,29.6,-000.3,0010.89,0005.91,0004.87
